"Pseudo-MPEC" for CARCX02

Created 2024 Sep 6 20:22:08 UT using Find_Orb

Click here for an explanation of pseudo-MPECs

 
 Astrometry: 
     CARCX02*1C2024 09 05.28409823 12 54.340+30 31 27.90   ~957b       VNEOCPG96
     CARCX02 1C2024 09 05.28931123 12 56.020+30 29 54.70   ~957b 20.69GVNEOCPG96
     CARCX02 1C2024 09 05.29451423 12 57.740+30 28 20.70   ~957b 20.99GVNEOCPG96
     CARCX02  C2024 09 05.31891323 13 05.226+30 20 58.48   ~958M 20.4 GVNEOCPH01
     CARCX02  C2024 09 05.32244223 13 06.366+30 19 54.77   ~958M 20.2 GVNEOCPH01
     CARCX02 KB2024 09 05.33476 23 13 09.283+30 16 01.20   ~958q 20.3 GVNEOCP734
     CARCX02  C2024 09 05.33637623 13 10.901+30 15 42.38   ~958M 21.7 GVNEOCPH01
     CARCX02  C2024 09 05.34135323 13 12.518+30 14 11.96   ~958M 20.8 GVNEOCPH01
     CARCX02 KB2024 09 05.34616 23 13 13.046+30 12 33.19   ~958q 20.5 GVNEOCP734
     CARCX02 KC2024 09 05.40456723 13 33.560+29 55 03.72   ~95AM       VNEOCPI52
     CARCX02 KC2024 09 05.40681923 13 34.244+29 54 22.72   ~95AM 20.96GVNEOCPI52
     CARCX02 KC2024 09 05.40907123 13 34.997+29 53 42.68   ~95AM 19.99GVNEOCPI52
     CARCX02 KC2024 09 05.41133523 13 35.778+29 53 00.67   ~95AM 20.34GVNEOCPI52
     CARCX02 1C2024 09 05.86785 23 16 26.85 +27 33 00.0    ~95LM 21.0 VXNEOCP033
     CARCX02 1C2024 09 05.86880 23 16 27.16 +27 32 42.5    ~95LM 21.6 VXNEOCP033
     CARCX02 1C2024 09 05.86975 23 16 27.49 +27 32 25.3    ~95LM 20.5 VXNEOCP033
     CARCX02 1C2024 09 05.87080 23 16 27.81 +27 32 05.8    ~95LM 20.8 VXNEOCP033
     CARCX02 1C2024 09 06.04785 23 17 24.99 +26 37 22.1    ~966b 21.4 VXNEOCP033
     CARCX02 1C2024 09 06.04874 23 17 25.26 +26 37 05.3    ~966b 20.9 VXNEOCP033
     CARCX02 1C2024 09 06.04963 23 17 25.58 +26 36 48.6    ~966b 21.1 VXNEOCP033
     CARCX02 1C2024 09 06.05119 23 17 26.06 +26 36 19.4    ~966b 21.5 VXNEOCP033
     CARCX02 1C2024 09 06.05281 23 17 26.58 +26 35 49.3    ~966b 21.3 VXNEOCP033
     CARCX02 KC2024 09 06.24524123 18 36.21 +25 36 14.5    ~966b 20.5 GVNEOCPH21
     CARCX02 KC2024 09 06.25643423 18 39.67 +25 32 44.5    ~966b 21.0 GVNEOCPH21
     CARCX02 KC2024 09 06.25932523 18 40.54 +25 31 50.5    ~966b 21.1 GVNEOCPH21

Station data:
(033) Karl Schwarzschild Observatory, Tautenburg  (N50.980139 E11.711240)
   Germany.  Observer B. Stecklum. 1.34-m f/3 Schmidt + CCD.
(734) Farpoint Observatory, Eskridge  (N38.890239 W96.002420)  US/Kansas.
   Observer G. Hug. 0.69-m reflector + CCD.
(G96) Mt. Lemmon Survey  (N32.442729 W110.788720)  US/Arizona.  Observer E.
   J. Christensen. 1.5-m reflector + 10K CCD.
(H01) Magdalena Ridge Observatory, Socorro  (N33.984833 W107.189333)  US/New
   Mexico.  Observers W. H. Ryan, E. V. Ryan. Measurer W. H. Ryan. 2.4-m
   f/8.9 reflector + CCD.
(H21) Astronomical Research Observatory, Westfield  (N39.483054 W87.968270)
   US/Illinois.  Observer R. Holmes. Measurers S. Foglia, L. Buzzi, T.
   Linder, R. Holmes. 0.76-m f/3.0 astrograph + CCD0.81-m f/4.0 astrograph +
   CCD0.61-m f/4.5 astrograph + CCD0.40-m f/5.32 astrograph + CCD.
(I52) Steward Observatory, Mt. Lemmon Station  (N32.442570 W110.788920)
   US/Arizona.  Observers T. A. Pruyne, B. M. Africano, E. J. Christensen, G.
   A. Farneth, D. C. Fuls, A. R. Gibbs, A. D. Grauer, H. Gröller, J. A.
   Johnson, R. A. Kowalski, S. M. Larson, G. J. Leonard, D. Rankin, R. L.
   Seaman, F. C. Shelly, K. W. Wierzchoś. 1.0-m prime focus + CCD.

Orbital elements:  CARCX02
   Perihelion 2024 Jul 21.10733 +/- 0.116 TT =  2:34:33 (JD 2460512.60733)
Epoch 2024 Sep  6.0 TT = JDT 2460559.5   Earth MOID: 0.0805      AutoNEOCP
M  30.25232945 +/- 0.16             (J2000 ecliptic)
n   0.64513985 +/- 0.00204          Peri.  126.29349 +/- 0.10
a   1.32647824 +/- 0.00279          Node   169.48078 +/- 0.0034
e   0.2400709 +/- 0.00151           Incl.   24.47014 +/- 0.07
P   1.528/558.008d         H 24.86  G  0.15   U  8.6
q 1.00802929 +/- 0.000249    Q 1.64492720 +/- 0.00546
From 25 observations 2024 Sept. 5-6 (23.4 hr); mean residual 0".26
Residuals in arcseconds: 
240905 G96  .06+  .56-    240905 I52  .39+  .71-    240906 033  .26-  .05-    
240905 G96  .17-  .03-    240905 I52  .34-  .53-    240906 033  .19+  .09-    
240905 G96  .17+  .42-    240905 I52  .19-  .61+    240906 033  .12-  .10-    
240905 H01  .06-  .22+    240905 I52  .27+  .02+    240906 033  .15-  .12+    
240905 H01  .16-  .33+    240905 033  .11+  .06-    240906 H21  .01-  .01-    
240905 734  .11+  .69+    240905 033  .06+  .10-    240906 H21  .16+  .12-    
240905 H01  .11-  .27+    240905 033  .27+  .16+    240906 H21  .11-  .14+    
240905 H01  .15-  .10+    240905 033  .08-  .03-    
240905 734  .07+  .05-    240906 033  .03-  .10+    

Ephemerides (geocentric):
Date (UTC) HH   RA             Dec           delta  r     elong  mag " sig PA
---- --------  ------------   ------------  ------ ------ -----  --- --------
2024 09 06 20  23 21 55.521   +22 31 23.02  .08278 1.0809 150.9 20.8 .255 162
2024 09 06 21  23 22 09.388   +22 18 09.46  .08276 1.0810 151.2 20.8 .291 163
2024 09 06 22  23 22 23.217   +22 04 55.25  .08273 1.0812 151.4 20.8 .329 164
2024 09 06 23  23 22 37.011   +21 51 40.42  .08271 1.0813 151.6 20.8 .369 164
2024 09 07 00  23 22 50.767   +21 38 24.99  .08269 1.0814 151.8 20.8 .410 165
2024 09 07 01  23 23 04.486   +21 25 09.01  .08267 1.0815 152.1 20.8 .453 165
2024 09 07 02  23 23 18.169   +21 11 52.48  .08265 1.0816 152.3 20.8 .498 165
2024 09 07 03  23 23 31.816   +20 58 35.44  .08264 1.0817 152.5 20.8 .544 166
2024 09 07 04  23 23 45.426   +20 45 17.93  .08262 1.0819 152.8 20.8 .591 166
2024 09 07 05  23 23 58.999   +20 31 59.95  .08261 1.0820 153.0 20.8 .641 166
2024 09 07 06  23 24 12.536   +20 18 41.55  .08260 1.0821 153.2 20.8 .692 166
2024 09 07 07  23 24 26.038   +20 05 22.76  .08259 1.0822 153.5 20.8 .744 166
2024 09 07 08  23 24 39.503   +19 52 03.59  .08258 1.0823 153.7 20.8 .798 167
2024 09 07 09  23 24 52.932   +19 38 44.07  .08257 1.0824 153.9 20.7 .854 167
2024 09 07 10  23 25 06.325   +19 25 24.24  .08256 1.0826 154.1 20.7 .911 167
2024 09 07 11  23 25 19.682   +19 12 04.13  .08256 1.0827 154.4 20.7 .969 167
2024 09 07 12  23 25 33.003   +18 58 43.76  .08255 1.0828 154.6 20.7 1.03 167
2024 09 07 13  23 25 46.289   +18 45 23.15  .08255 1.0829 154.8 20.7 1.09 167
2024 09 07 14  23 25 59.539   +18 32 02.35  .08255 1.0830 155.1 20.7 1.15 167
2024 09 07 15  23 26 12.754   +18 18 41.37  .08255 1.0832 155.3 20.7 1.22 167
2024 09 07 16  23 26 25.933   +18 05 20.24  .08255 1.0833 155.5 20.7 1.29 167
2024 09 07 17  23 26 39.077   +17 51 59.00  .08255 1.0834 155.7 20.7 1.35 167
2024 09 07 18  23 26 52.185   +17 38 37.67  .08256 1.0835 156.0 20.7 1.42 167
2024 09 07 19  23 27 05.259   +17 25 16.28  .08256 1.0836 156.2 20.7 1.49 167
2024 09 07 20  23 27 18.297   +17 11 54.85  .08257 1.0837 156.4 20.7 1.57 168
2024 09 07 21  23 27 31.300   +16 58 33.43  .08258 1.0839 156.7 20.7 1.64 168
2024 09 07 22  23 27 44.269   +16 45 12.02  .08258 1.0840 156.9 20.7 1.72 168
2024 09 07 23  23 27 57.202   +16 31 50.67  .08260 1.0841 157.1 20.7 1.79 168
2024 09 08 00  23 28 10.101   +16 18 29.41  .08261 1.0842 157.3 20.7 1.87 168
2024 09 08 01  23 28 22.965   +16 05 08.25  .08262 1.0843 157.6 20.6 1.95 168
2024 09 08 02  23 28 35.795   +15 51 47.23  .08264 1.0845 157.8 20.6 2.03 168
2024 09 08 03  23 28 48.590   +15 38 26.38  .08265 1.0846 158.0 20.6 2.11 168
2024 09 08 04  23 29 01.350   +15 25 05.72  .08267 1.0847 158.2 20.6 2.20 168
2024 09 08 05  23 29 14.077   +15 11 45.28  .08269 1.0848 158.5 20.6 2.28 168
2024 09 08 06  23 29 26.769   +14 58 25.10  .08271 1.0849 158.7 20.6 2.37 168
2024 09 08 07  23 29 39.427   +14 45 05.19  .08273 1.0851 158.9 20.6 2.46 168
2024 09 08 08  23 29 52.050   +14 31 45.60  .08276 1.0852 159.2 20.6 2.55 168
2024 09 08 09  23 30 04.640   +14 18 26.33  .08278 1.0853 159.4 20.6 2.64 168
2024 09 08 10  23 30 17.196   +14 05 07.43  .08281 1.0854 159.6 20.6 2.73 168
2024 09 08 11  23 30 29.718   +13 51 48.92  .08283 1.0855 159.8 20.6 2.82 168
2024 09 08 12  23 30 42.207   +13 38 30.83  .08286 1.0856 160.1 20.6 2.92 168
2024 09 08 13  23 30 54.661   +13 25 13.19  .08289 1.0858 160.3 20.6 3.01 168
2024 09 08 14  23 31 07.082   +13 11 56.01  .08292 1.0859 160.5 20.6 3.11 168
2024 09 08 15  23 31 19.470   +12 58 39.34  .08296 1.0860 160.7 20.6 3.21 168
2024 09 08 16  23 31 31.824   +12 45 23.20  .08299 1.0861 160.9 20.6 3.31 168
2024 09 08 17  23 31 44.145   +12 32 07.61  .08303 1.0862 161.2 20.6 3.41 168
2024 09 08 18  23 31 56.433   +12 18 52.61  .08306 1.0864 161.4 20.6 3.51 168
2024 09 08 19  23 32 08.687   +12 05 38.21  .08310 1.0865 161.6 20.5 3.62 168